| time (UTC) | temp F | wind direction | speed knots | gust knots | rain 1hr in | rain 24hr in | rain mn in | humidity % | barometer mb |
| 20260504050631 | 58 | 225 | 2.6 | 5.2 | 0.00 | 0.00 | 0.00 | 100 | 1008.5 |
| 20260504045640 | 58 | 225 | 1.7 | 2.6 | 0.00 | 0.00 | 0.00 | 100 | 1008.5 |
| 20260504044739 | 58 | 221 | 1.7 | 3.5 | 0.00 | 0.00 | 0.00 | 100 | 1008.5 |
| 20260504043740 | 58 | 218 | 2.6 | 4.3 | 0.00 | 0.00 | 0.00 | 100 | 1008.5 |
| 20260504042839 | 58 | 209 | 2.6 | 3.5 | 0.00 | 0.00 | 0.00 | 100 | 1008.5 |
| 20260504041840 | 58 | 219 | 1.7 | 3.5 | 0.00 | 0.00 | 0.00 | 100 | 1008.5 |
| 20260504040840 | 58 | 217 | 2.6 | 4.3 | 0.00 | 0.00 | 0.00 | 100 | 1008.5 |
| 20260504035842 | 59 | 205 | 2.6 | 3.5 | 0.00 | 0.00 | 0.00 | 100 | 1008.5 |
| 20260504034937 | 59 | 200 | 2.6 | 3.5 | 0.00 | 0.00 | 0.00 | 100 | 1008.8 |
| 20260504032040 | 60 | 202 | 2.6 | 3.5 | 0.00 | 0.00 | 0.00 | 100 | 1009.2 |
| 20260504031039 | 60 | 214 | 2.6 | 5.2 | 0.00 | 0.00 | 0.00 | 100 | 1009.2 |
| 20260504030037 | 61 | 205 | 2.6 | 6.1 | 0.00 | 0.00 | 0.00 | 100 | 1009.2 |
| 20260504024040 | 61 | 221 | 0.9 | 2.6 | 0.00 | 0.00 | 0.00 | 100 | 1009.2 |
| 20260504023041 | 62 | 206 | 2.6 | 5.2 | 0.00 | 0.00 | 0.00 | 100 | 1009.2 |
| 20260504022040 | 62 | 225 | 1.7 | 3.5 | 0.00 | 0.00 | 0.00 | 100 | 1009.2 |
| 20260504021138 | 62 | 219 | 2.6 | 4.3 | 0.00 | 0.00 | 0.00 | 100 | 1008.9 |
| 20260504020137 | 63 | 213 | 2.6 | 5.2 | 0.00 | 0.00 | 0.00 | 100 | 1008.8 |
| 20260504015139 | 63 | 225 | 2.6 | 7.0 | 0.00 | 0.00 | 0.00 | 100 | 1008.8 |
| 20260504014138 | 64 | 225 | 1.7 | 4.3 | 0.00 | 0.00 | 0.00 | 100 | 1008.8 |
| 20260504013039 | 64 | 225 | 3.5 | 5.2 | 0.00 | 0.00 | 0.00 | 100 | 1008.5 |
| 20260504012040 | 64 | 218 | 3.5 | 5.2 | 0.00 | 0.00 | 0.00 | 100 | 1008.5 |
| 20260504011040 | 65 | 221 | 2.6 | 5.2 | 0.00 | 0.00 | 0.00 | 100 | 1008.2 |
| 20260504005040 | 66 | 221 | 5.2 | 11.3 | 0.00 | 0.00 | 0.00 | 100 | 1008.5 |
| 20260504004039 | 67 | 227 | 2.6 | 6.1 | 0.00 | 0.00 | 0.00 | 100 | 1008.5 |
| 20260504003041 | 67 | 229 | 3.5 | 7.8 | 0.00 | 0.00 | 0.00 | 100 | 1008.5 |
| 20260504002138 | 68 | 238 | 1.7 | 3.5 | 0.00 | 0.00 | 0.00 | 100 | 1008.5 |
| 20260504001139 | 68 | 231 | 0.9 | 3.5 | 0.00 | 0.00 | 0.00 | 100 | 1008.5 |
| 20260504000138 | 69 | 247 | 2.6 | 5.2 | 0.00 | 0.00 | 0.00 | 100 | 1008.5 |
| 20260503235137 | 69 | 218 | 2.6 | 4.3 | 0.00 | 0.00 | 0.00 | 100 | 1008.5 |
| 20260503235040 | 69 | 249 | 1.7 | 6.1 | 0.00 | 0.00 | 0.00 | 100 | 1008.2 |
| 20260503234138 | 69 | 215 | 4.3 | 10.4 | 0.00 | 0.00 | 0.00 | 100 | 1008.2 |
| 20260503232139 | 68 | 223 | 3.5 | 5.2 | 0.00 | 0.00 | 0.00 | 100 | 1008.5 |
| 20260503230240 | 68 | 215 | 7.0 | 13.9 | 0.00 | 0.00 | 0.00 | 100 | 1008.5 |
| 20260503225241 | 68 | 209 | 6.1 | 10.4 | 0.00 | 0.00 | 0.00 | 100 | 1008.5 |
| 20260503224337 | 68 | 200 | 5.2 | 12.2 | 0.00 | 0.00 | 0.00 | 100 | 1008.8 |
| 20260503223339 | 67 | 199 | 5.2 | 8.7 | 0.00 | 0.00 | 0.00 | 100 | 1008.8 |
| 20260503222338 | 67 | 197 | 7.8 | 13.0 | 0.00 | 0.00 | 0.00 | 100 | 1009.2 |
| 20260503221339 | 66 | 208 | 5.2 | 12.2 | 0.00 | 0.00 | 0.00 | 100 | 1009.2 |
| 20260503220339 | 66 | 227 | 2.6 | 5.2 | 0.00 | 0.00 | 0.00 | 100 | 1009.5 |
| 20260503215437 | 66 | 214 | 7.8 | 18.2 | 0.00 | 0.00 | 0.00 | 100 | 1009.6 |
| 20260503214439 | 66 | 210 | 7.0 | 15.6 | 0.00 | 0.00 | 0.00 | 100 | 1009.2 |
| 20260503212539 | 65 | 216 | 7.0 | 12.2 | 0.00 | 0.00 | 0.00 | 100 | 1009.6 |
| 20260503212437 | 65 | 191 | 9.6 | 14.8 | 0.00 | 0.00 | 0.00 | 100 | 1009.6 |
| 20260503205441 | 64 | 206 | 7.0 | 11.3 | 0.00 | 0.00 | 0.00 | 100 | 1010.3 |
| 20260503204538 | 64 | 227 | 7.8 | 13.9 | 0.00 | 0.00 | 0.00 | 100 | 1010.6 |
| 20260503203538 | 65 | 211 | 8.7 | 15.6 | 0.00 | 0.00 | 0.00 | 100 | 1010.9 |
| 20260503202540 | 65 | 207 | 5.2 | 13.0 | 0.00 | 0.00 | 0.00 | 100 | 1011.0 |
| 20260503201539 | 65 | 221 | 11.3 | 18.2 | 0.00 | 0.00 | 0.00 | 100 | 1011.0 |
| 20260503200538 | 65 | 204 | 8.7 | 13.9 | 0.00 | 0.00 | 0.00 | 100 | 1011.0 |
| 20260503195637 | 64 | 216 | 8.7 | 16.5 | 0.00 | 0.00 | 0.00 | 100 | 1011.3 |
| 20260503194639 | 63 | 229 | 5.2 | 10.4 | 0.00 | 0.00 | 0.00 | 100 | 1011.3 |
| 20260503193640 | 62 | 225 | 4.3 | 8.7 | 0.00 | 0.00 | 0.00 | 100 | 1011.6 |
| 20260503192737 | 61 | 216 | 7.8 | 14.8 | 0.00 | 0.00 | 0.00 | 100 | 1011.6 |
| 20260503191736 | 60 | 174 | 7.8 | 13.0 | 0.00 | 0.00 | 0.00 | 100 | 1011.6 |
| 20260503185739 | 58 | 172 | 4.3 | 8.7 | 0.00 | 0.00 | 0.00 | 100 | 1012.0 |
| 20260503184838 | 57 | 187 | 5.2 | 12.2 | 0.00 | 0.00 | 0.00 | 100 | 1012.6 |
| 20260503183836 | 56 | 167 | 7.0 | 13.0 | 0.00 | 0.00 | 0.00 | 100 | 1013.0 |
| 20260503182838 | 56 | 222 | 3.5 | 8.7 | 0.00 | 0.00 | 0.00 | 100 | 1013.0 |
| 20260503181938 | 55 | 210 | 2.6 | 7.0 | 0.00 | 0.00 | 0.00 | 100 | 1013.0 |
| 20260503180939 | 55 | 205 | 5.2 | 13.0 | 0.00 | 0.00 | 0.00 | 100 | 1013.7 |
| 20260503175939 | 55 | 207 | 3.5 | 7.0 | 0.00 | 0.00 | 0.00 | 100 | 1014.4 |
| 20260503174939 | 55 | 215 | 4.3 | 11.3 | 0.00 | 0.00 | 0.00 | 100 | 1014.4 |
| 20260503174037 | 54 | 210 | 5.2 | 9.6 | 0.00 | 0.00 | 0.00 | 100 | 1014.7 |
| 20260503173038 | 54 | 208 | 4.3 | 11.3 | 0.00 | 0.00 | 0.00 | 100 | 1015.1 |
| 20260503172037 | 53 | 199 | 4.3 | 7.0 | 0.00 | 0.00 | 0.00 | 100 | 1015.4 |
| 20260503171039 | 52 | 215 | 6.1 | 13.9 | 0.00 | 0.00 | 0.00 | 100 | 1015.4 |
| 20260503131236 | 51 | 262 | 3.5 | 5.2 | 0.00 | 0.00 | 0.00 | 100 | 1016.8 |
| 20260503110338 | 47 | 223 | 5.2 | 7.8 | 0.00 | 0.00 | 0.00 | 100 | 1016.4 |
| 20260503080836 | 47 | 216 | 2.6 | 4.3 | 0.00 | 0.00 | 0.00 | 100 | 1017.2 |
| 20260503080738 | 47 | 221 | 1.7 | 4.3 | 0.00 | 0.00 | 0.00 | 100 | 1017.2 |
| 20260503072939 | 47 | 225 | 2.6 | 5.2 | 0.00 | 0.00 | 0.00 | 100 | 1017.4 |
| 20260503072037 | 46 | 228 | 1.7 | 3.5 | 0.00 | 0.00 | 0.00 | 100 | 1017.2 |
| 20260503071052 | 46 | 225 | 0.9 | 3.5 | 0.00 | 0.00 | 0.00 | 100 | 1017.5 |